Regional Weather Roundup
Issued by NWS

Home | Current Version | Previous Version | Graphics & Text | Print | Product List | Glossary On
Versions: 1 2 3 4 5 6 7 8 9 10 11 12 13 14 15 16 17 18 19 20 21 22 23 24 25 26 27 28 29 30 31 32 33 34 35 36 37 38 39 40 41 42 43 44 45 46 47 48 49 50
000
ASUS45 KBOU 250107
RWRCO

WEATHER ROUNDUP FOR COLORADO
NATIONAL WEATHER SERVICE DENVER/BOULDER CO
700 PM MDT WED MAY 24 2017

NOTE: "FAIR" INDICATES FEW OR NO CLOUDS BELOW 12000 FEET WITH NO
SIGNIFICANT WEATHER AND/OR OBSTRUCTIONS TO VISIBILITY.

COZ001>005-013-030-031-250200-
...NORTHWEST COLORADO...

CITY           SKY/WX    TMP DP  RH WIND       PRES   REMARKS
CRAIG          FAIR      73  34  23 W12       29.67F
HAYDEN         FAIR      70  36  28 SW12      29.70S
MEEKER         FAIR      76  24  14 W20       29.69F
RABBIT EARS PA MOCLDY    50  30  46 W7        29.98F
STEAMBOAT SPGS FAIR      69  37  31 S5        29.72F
WALDEN           N/A     64  27  24 W18G26    29.81F
$$

COZ006>008-011-250200-
...WEST CENTRAL VALLEYS...

CITY           SKY/WX    TMP DP  RH WIND       PRES   REMARKS
GRAND JUNCTION FAIR      85  28  12 SW12      29.59F
MONTROSE       FAIR      80  22  11 W13       29.70F
EAGLE          SUNNY     75  27  16 W17       29.75F
RIFLE          FAIR      82  24  12 W15       29.65F
DELTA          FAIR      86  22   9 SW10G17   29.64F
NUCLA          FAIR      79  23  12 SW10      29.76F
$$

COZ017>023-064>068-250200-
...SOUTHWEST COLORADO...

CITY           SKY/WX    TMP DP  RH WIND       PRES   REMARKS
DURANGO        FAIR      76  23  14 W18G24    29.83F
CORTEZ         FAIR      81  21  11 SW13      29.77F
PAGOSA SPRINGS NOT AVBL
TELLURIDE      PTSUNNY   65  19  17 SW12G21   30.00F
WOLF CREEK PAS FAIR      46  21  36 SW10G23   30.23S
$$

COZ009-010-012-014-032>034-037-058>063-250200-
...CENTRAL COLORADO...

CITY           SKY/WX    TMP DP  RH WIND       PRES   REMARKS
ASPEN          FAIR      69  26  20 SW8       29.83F
BUENA VISTA    FAIR      67  22  18 W8        29.86S
COPPER MTN     FAIR      48  16  27 W29G43    30.10F
BERTHOUD PASS  FAIR      41  32  70 W31G43    30.11S
COTTONWOOD PAS PTSUNNY   61  19  20 SW16G26   29.98F
GUNNISON       FAIR      68  29  23 W9        29.86F
KREMMLING      PTSUNNY   73  32  21 NW7       29.79F
LEADVILLE      FAIR      56  21  25 SW7       29.97F
MONARCH PASS   FAIR      46  27  46 W33G47    30.23F
SALIDA         FAIR      73  24  15 W10G16    29.90F
SUNLIGHT       FAIR      48  23  37 SW20G32   30.04F
WILKERSON PASS FAIR      52  21  30 SW10G25   30.09F
$$

COZ069>075-250200-
...SAN LUIS VALLEY/SANGRE DE CRISTO MOUNTAINS...

CITY           SKY/WX    TMP DP  RH WIND       PRES   REMARKS
ALAMOSA        FAIR      73  26  17 W18G24    29.83F
DEL NORTE      FAIR      71  22  15 W14G22    29.87S
LA VETA PASS   FAIR      57  28  33 MISG      30.12R
SAGUACHE       FAIR      72  25  17 NW20      29.86F
$$

COZ035-036-038>040-250200-
...NORTHERN COLORADO FRONT RANGE...

CITY           SKY/WX    TMP DP  RH WIND       PRES   REMARKS
DENVER INTL AP FAIR      81  35  19 W10       29.60F
DMNS CITY PARK   N/A     80  24  12 W15G21    29.60S
AURORA         MOSUNNY   79  31  17 W12       29.63F
FRONT RANGE AP MOSUNNY   79  45  29 W12       29.62F
ERIE MUNI ARPT FAIR      80  32  17 W8        29.59S
BOULDER MUN AP FAIR      81  32  17 SW10G20   29.59S
CENTENNIAL     FAIR      78  27  15 W9        29.65F
BROOMFIELD     MOSUNNY   81  36  19 W12       29.63F
FORT COLLINS   FAIR      86  37  17 VRB3      29.58S
LONGMONT       FAIR      83  33  16 W14G24    29.60S
$$

COZ041-046-047-076>085-087-088-250200-
...PIKES PEAK/PALMER DIVIDE AND SOUTHERN FOOTHILLS...

CITY           SKY/WX    TMP DP  RH WIND       PRES   REMARKS
COLO. SPRINGS  FAIR      79  33  19 SE10      29.70S
A. F. ACADEMY  FAIR      76  26  15 NW16G22   29.71S
SCHRIEVER AFB  PTSUNNY   73  38  28 S8        29.70S
CHEYENNE MTN   FAIR      72  23  15 NW6       29.70S
ELLICOTT       FAIR     N/A N/A N/A SE14      29.68F
FALCON         FAIR      74  25  15 W6G16     29.76S
FORT CARSON    FAIR      81  28  15 NW14      29.65F
LIMON          FAIR      74  39  28 S15       29.64F
MONUMENT HILL  FAIR      72  32  23 W15       29.77S
CANON CITY     NOT AVBL
WALSENBURG     FAIR      79  34  19 MISG      29.69S
TRINIDAD       FAIR      81  35  19 NW8       29.66F
$$

COZ042>045-048>051-090-091-250200-
...NORTHEAST COLORADO...

CITY           SKY/WX    TMP DP  RH WIND       PRES   REMARKS
GREELEY ARPT   FAIR      81  35  19 SW6       29.55F
AKRON          FAIR      77  43  29 SW5       29.57F
BURLINGTON     FAIR      72  46  39 S12       29.60F
WRAY           FAIR      77  43  29 S20G25    29.53S
YUMA           FAIR      75  45  33 S13G21    29.54F
STERLING       FAIR      79  52  38 S7        29.49S
HOLYOKE        NOT AVBL
FORT MORGAN    FAIR      80  39  23 SW8       29.55F
$$

COZ086-089-092>099-250200-
...SOUTHEAST COLORADO...

CITY           SKY/WX    TMP DP  RH WIND       PRES   REMARKS
PUEBLO         FAIR      86  30  13 W18G31    29.56S
LA JUNTA       FAIR      83  44  25 SE9       29.56F
LAMAR          FAIR      80  44  27 SE13      29.55F
SPRINGFIELD      N/A     75  41  29 S16       29.63F
$$



USA.gov is the U.S. government's official web portal to all federal, state and local government web resources and services.